Wind_Speed
31 29 27 26 26 24 23 24 25 25 26 26 27 27 28 28 27 26 26 26 26 25 25 25 26 28 28 28 29 28 27 28 29 30 31 30 29 28 27 27 26 26 27 27 27 26 26 27 26 24 24 25 25 24 23 22 22 23 24 23 23 23 24 25 26 26 27 27 27 28 30 30 29 30 34 37 39 41 43 42 42 42 41 39 39
32 27 25 25 24 22 21 23 25 26 26 27 27 27 28 28 27 27 26 27 27 26 25 24 25 27 28 29 29 29 28 28 28 29 30 31 30 29 28 28 28 28 28 28 28 28 27 27 27 26 25 25 25 25 24 24 24 24 24 23 22 23 25 26 27 27 27 27 29 30 30 30 30 31 34 37 36 38 41 42 42 42 42 41 41
31 26 25 26 25 23 23 24 25 26 27 27 27 27 28 28 28 27 26 26 27 27 26 24 23 25 26 28 28 28 29 29 29 30 30 31 31 31 30 30 30 29 29 29 29 30 29 28 27 26 26 25 26 26 25 25 26 26 26 25 25 27 28 28 28 28 28 27 29 31 31 33 34 32 35 38 38 37 39 42 43 43 43 43 43
29 25 24 26 25 24 24 24 24 25 27 28 28 28 28 29 29 28 26 26 27 27 27 25 23 23 25 26 26 27 28 29 30 31 31 32 33 33 32 32 31 31 31 31 31 31 31 30 28 27 27 26 27 27 26 27 27 27 28 27 28 29 30 28 28 29 29 29 30 31 31 32 33 32 34 37 40 40 40 42 44 44 44 43 44
28 27 25 25 25 24 23 24 25 26 27 29 30 30 30 31 31 30 29 28 27 27 28 27 24 25 25 25 26 26 27 28 29 30 31 32 33 33 33 32 32 31 31 31 31 31 31 31 30 28 28 28 28 28 28 28 28 27 28 28 29 30 30 29 28 29 30 30 31 30 29 28 27 25 27 30 35 41 42 42 44 45 45 44 44
28 28 26 23 23 23 22 25 26 26 28 30 32 32 33 33 33 33 32 30 29 28 29 28 27 27 27 26 27 27 27 27 28 29 30 31 31 32 32 32 31 31 31 31 31 31 32 32 31 30 29 29 29 29 29 29 29 28 28 29 29 29 30 29 29 29 29 29 30 30 28 26 24 22 22 23 26 32 39 44 44 44 46 46 46
28 29 27 23 23 23 23 25 27 28 30 32 34 34 34 35 35 35 34 33 30 30 30 29 28 28 28 27 27 27 27 27 27 28 29 30 30 31 31 31 31 30 30 30 30 31 31 32 32 31 31 30 30 30 30 30 29 29 28 29 29 29 29 29 29 29 28 28 29 29 27 25 24 23 22 21 21 21 27 36 43 45 46 47 49
30 29 28 25 24 24 25 26 28 29 32 34 34 35 36 36 37 36 36 34 32 31 32 30 28 28 29 28 28 28 28 28 27 27 28 29 29 30 30 30 30 29 29 29 29 29 30 30 31 31 32 31 31 31 31 30 30 29 28 29 29 29 28 28 29 29 28 28 29 29 27 25 23 21 19 20 21 20 18 22 31 41 47 49 50
31 31 31 29 26 26 26 27 28 30 32 34 34 36 38 37 38 38 37 36 34 33 33 32 29 28 28 28 28 28 28 28 27 27 28 28 29 29 29 29 28 27 27 27 27 27 27 28 29 30 30 31 30 30 30 30 30 30 28 28 29 29 27 27 28 28 27 27 28 29 28 27 25 23 23 24 24 23 21 20 21 27 37 45 49
30 31 31 31 30 29 28 28 29 31 32 34 35 37 39 38 39 39 38 36 35 33 33 32 31 29 27 27 26 27 28 27 27 27 27 28 28 28 27 27 26 26 25 25 25 25 25 25 26 27 28 29 29 29 29 29 29 29 28 27 28 28 27 26 27 27 27 26 26 27 28 28 28 28 29 30 29 27 26 25 23 22 25 33 41
31 32 32 32 31 30 30 30 31 32 34 35 36 37 39 39 39 39 38 36 32 31 31 31 30 28 27 26 25 25 26 26 26 26 26 27 26 26 25 24 24 23 23 23 23 23 23 23 23 24 25 26 27 27 28 28 28 28 26 26 26 27 26 25 25 26 26 25 25 26 27 28 29 28 29 30 30 29 27 25 25 24 23 25 31
33 33 32 32 32 32 32 32 34 35 36 37 37 37 39 40 40 39 37 32 27 27 27 27 27 26 25 25 24 24 25 25 25 24 24 24 24 23 23 22 21 21 21 21 21 21 21 21 22 22 23 24 25 25 26 26 26 26 25 24 24 25 25 24 24 25 25 25 24 24 25 26 27 27 27 28 27 26 26 25 23 23 24 23 25
33 33 32 33 32 33 34 35 37 36 36 38 37 37 39 40 40 38 32 26 24 24 24 24 24 23 23 23 23 22 23 24 23 23 22 22 21 21 20 20 19 19 19 19 20 20 19 19 19 20 21 22 23 23 24 24 24 24 23 22 22 23 23 23 24 24 24 24 24 23 23 24 25 25 25 24 24 23 23 23 22 21 22 23 21
30 31 32 32 32 33 34 36 37 36 36 38 37 38 40 40 37 32 26 22 22 22 22 22 22 22 22 22 21 21 22 23 22 22 21 21 20 20 19 19 19 18 18 18 18 18 18 17 17 18 19 21 21 22 22 23 23 23 22 21 21 21 22 22 22 23 23 23 23 23 22 22 23 23 23 22 22 21 21 21 21 20 21 22 21
26 27 28 28 29 31 33 34 35 34 34 35 36 38 38 35 30 25 22 21 21 22 22 21 21 21 21 21 21 21 21 22 23 23 22 22 21 20 20 19 19 19 18 18 18 18 17 17 16 16 17 19 20 20 21 21 22 22 21 21 20 20 20 21 21 22 22 21 21 21 21 21 21 21 22 21 21 20 20 20 20 19 20 20 20
23 23 24 25 26 28 30 29 29 29 29 30 30 31 30 28 24 23 22 20 21 22 21 21 22 21 21 21 21 20 20 20 22 22 23 23 22 21 21 20 19 19 19 19 19 19 18 17 16 16 17 17 18 18 19 19 20 20 20 20 19 19 19 20 20 21 21 21 20 20 20 20 20 20 20 20 19 19 18 18 18 18 18 19 19
23 23 23 24 25 27 27 26 24 23 23 23 23 23 24 24 23 24 23 21 21 21 21 22 23 22 21 20 20 20 20 20 21 22 22 22 21 21 20 20 20 19 19 19 19 19 19 18 18 17 17 17 18 18 18 18 18 18 18 18 18 18 18 19 19 20 20 20 20 19 19 19 19 19 19 18 18 18 17 17 17 17 17 18 18
22 22 23 24 24 26 25 24 23 22 21 21 20 21 23 24 24 25 23 21 21 21 22 23 24 23 22 21 21 21 22 22 21 20 20 20 20 20 20 20 20 20 20 20 20 20 20 20 19 19 19 19 18 18 18 18 18 18 18 17 17 17 18 18 19 19 20 20 19 19 19 19 19 19 19 18 18 17 17 16 16 17 17 17 17
22 22 24 24 24 25 26 25 24 23 23 23 22 23 25 25 25 25 24 23 22 22 23 24 24 24 24 24 23 23 23 23 22 20 21 21 21 21 22 22 22 22 22 21 22 22 21 21 21 20 20 20 20 20 20 19 19 18 18 18 18 18 17 18 18 19 19 20 20 19 19 19 20 20 20 20 19 19 18 18 17 17 18 18 18
23 23 25 25 25 26 28 29 29 28 27 27 28 28 29 28 27 27 26 24 23 24 25 25 25 26 26 25 25 25 25 24 23 23 24 24 24 23 22 22 22 22 21 21 21 21 21 21 21 21 21 21 22 21 21 21 20 20 20 20 20 20 20 19 19 19 20 20 20 20 20 20 20 21 21 22 22 21 21 21 20 20 20 20 20
24 23 25 27 28 27 28 30 32 34 33 33 33 32 32 31 30 29 28 26 26 28 29 28 28 27 27 26 26 27 26 26 25 25 25 26 26 25 24 23 22 22 22 21 21 21 21 21 21 20 20 20 20 21 21 21 20 20 20 20 21 21 22 22 22 22 22 22 22 22 22 22 21 21 22 23 23 24 24 23 23 23 23 23 23
26 24 24 27 29 30 30 30 31 33 35 35 34 33 34 35 34 32 29 28 30 32 31 30 29 27 27 28 28 28 27 27 26 26 26 26 26 26 24 25 26 26 25 25 24 23 23 22 22 22 22 21 20 20 21 22 22 22 21 21 22 22 22 23 23 23 23 24 24 25 25 25 25 24 24 24 24 25 25 25 25 25 25 25 25
28 28 27 28 30 31 32 32 33 33 32 32 32 33 35 37 36 35 32 31 33 35 35 34 32 30 29 29 29 29 28 27 26 28 28 26 26 26 25 26 26 26 26 27 28 27 26 25 24 24 25 24 23 23 23 23 23 23 23 23 24 24 25 25 25 24 24 24 25 26 27 27 28 28 28 27 27 27 27 27 27 27 28 28 28
31 31 30 30 31 32 33 33 34 35 34 32 32 33 34 35 35 36 35 35 36 38 39 36 34 32 31 30 30 31 31 29 28 31 31 29 29 30 29 28 27 27 27 28 28 28 29 28 27 26 26 26 24 24 23 23 23 23 23 23 24 25 26 27 27 27 26 26 26 27 28 28 29 29 29 30 30 30 30 30 30 30 30 31 31
33 34 34 34 34 34 35 35 34 34 35 35 35 35 35 34 35 36 37 38 39 41 40 37 35 35 33 31 32 33 34 33 32 32 33 32 31 32 32 32 32 32 32 30 28 27 28 29 30 28 27 26 25 25 25 24 24 25 24 24 25 26 27 28 28 28 28 29 29 29 29 30 31 31 31 31 31 31 31 32 32 32 32 32 33
35 36 37 38 39 38 38 38 37 36 35 35 36 37 38 37 37 38 38 38 38 40 40 39 40 38 35 34 36 37 36 35 33 33 35 35 34 34 34 33 34 33 33 32 31 29 28 28 29 29 29 29 29 28 28 28 28 28 28 27 28 29 29 30 31 31 31 31 31 32 32 33 33 33 33 33 33 33 33 33 33 33 33 33 34
39 39 40 41 42 43 43 42 42 41 40 39 38 38 39 40 41 42 42 41 40 41 41 42 42 40 38 37 39 40 38 36 35 37 38 38 38 38 36 35 36 36 35 36 35 34 32 30 30 30 30 31 33 32 32 32 32 34 34 33 34 34 34 34 34 34 33 33 33 34 35 36 36 36 36 36 36 36 35 35 35 34 34 34 34
38 39 40 41 43 44 46 46 46 45 44 44 43 42 41 41 42 44 45 45 45 44 43 44 44 44 44 42 40 40 41 41 40 40 41 41 42 42 41 40 41 39 37 37 39 40 38 34 33 34 33 34 34 34 36 36 35 36 37 38 38 37 37 36 36 36 35 35 36 36 37 38 39 40 40 40 40 39 39 39 38 37 36 36 36
38 36 35 37 41 43 44 46 47 48 47 47 46 46 45 44 44 44 45 47 47 46 46 47 47 47 48 48 45 42 43 45 44 42 42 43 45 47 47 45 44 41 37 36 38 41 40 37 37 37 38 39 37 35 37 39 38 39 40 39 38 38 38 38 38 38 37 36 37 38 39 39 40 41 42 42 43 42 42 42 42 41 40 39 39
41 39 35 34 36 39 41 43 44 45 47 47 47 47 47 47 45 44 45 46 47 48 49 50 50 50 51 51 50 48 46 46 46 45 44 44 44 45 44 42 43 43 42 42 41 41 43 42 41 39 40 41 39 37 38 40 41 42 43 41 40 39 40 40 40 40 40 40 40 40 41 41 41 43 44 44 44 44 44 44 44 43 43 42 41
41 39 38 36 35 36 38 39 40 41 43 45 45 46 46 46 46 45 45 46 47 48 50 51 51 52 53 53 52 52 51 51 50 50 49 49 48 47 44 41 41 42 44 44 43 43 45 46 45 44 44 44 43 42 41 41 43 46 46 44 42 42 42 43 44 43 42 41 40 40 40 41 41 43 44 46 46 46 46 45 45 45 45 45 44
41 41 40 40 39 38 38 38 38 39 41 42 43 44 45 45 46 47 48 49 49 50 51 52 52 53 54 54 53 53 53 54 55 55 55 56 56 55 54 51 47 45 44 44 44 45 47 48 48 48 49 49 47 44 43 43 45 48 47 45 45 45 44 46 46 44 43 43 42 42 42 43 43 43 44 45 46 46 46 45 45 46 47 47 47
44 43 43 44 43 42 40 39 39 40 41 42 43 44 45 45 46 47 48 50 52 53 52 52 52 52 53 54 54 55 55 56 56 56 57 58 58 58 57 55 52 49 47 46 45 45 47 48 49 50 51 51 49 47 47 48 49 49 48 48 48 47 46 47 49 49 49 49 48 48 48 48 48 47 47 47 47 47 47 47 46 46 46 47 47
45 45 47 48 48 46 43 42 41 42 42 42 43 44 44 45 46 47 48 50 53 54 55 55 55 54 53 53 52 52 53 53 53 53 53 54 55 55 54 53 52 51 50 50 49 49 50 50 51 52 52 51 51 51 52 52 52 52 51 50 51 51 51 51 51 51 50 48 47 48 48 49 49 49 49 49 49 48 48 48 48 48 48 47 47
52 51 52 52 51 48 47 46 45 44 43 44 44 44 44 45 46 46 47 49 51 53 55 57 58 58 58 57 56 55 54 53 53 53 52 52 53 54 55 55 55 55 55 55 55 55 55 55 56 56 55 55 56 57 56 56 56 55 54 54 55 54 52 51 51 51 51 49 49 50 50 50 50 50 50 49 48 48 48 48 49 49 50 50 49
53 53 53 54 52 49 48 48 47 46 45 45 45 45 45 46 46 47 47 48 50 52 53 55 56 58 58 59 60 59 58 58 58 57 56 56 56 57 58 59 59 59 60 60 59 59 60 60 60 60 60 59 60 60 60 60 59 57 56 56 56 54 54 54 54 55 54 52 51 51 52 52 53 53 52 51 50 50 50 49 50 50 50 51 50
52 52 53 55 53 51 50 50 49 48 47 47 47 47 47 47 48 48 49 49 50 51 53 54 55 55 56 57 57 57 57 57 57 58 58 58 59 59 59 60 61 61 61 61 62 62 62 62 62 62 61 60 60 61 60 59 58 57 56 56 56 56 56 56 55 55 55 54 53 53 53 53 53 52 51 51 51 51 51 51 51 51 51 51 50
53 53 54 54 52 51 51 51 50 50 49 49 49 49 49 49 49 50 50 51 52 52 53 54 55 55 55 55 56 56 56 56 56 56 56 57 57 57 58 58 59 59 59 60 60 61 61 60 59 59 58 58 58 58 57 56 56 56 55 55 55 55 55 55 56 56 56 55 55 54 54 53 53 53 54 53 53 53 53 53 53 53 53 52 51
51 51 51 51 50 49 50 51 51 51 51 50 50 50 50 50 50 50 51 52 53 53 54 55 55 55 55 55 55 56 56 56 56 55 56 56 56 56 56 56 56 56 56 57 58 59 58 56 55 55 56 56 56 56 55 55 55 54 54 54 55 55 55 56 57 57 57 56 56 56 55 55 56 57 58 57 56 56 56 56 56 56 55 55 54
49 49 49 50 48 47 48 49 49 49 50 50 51 51 50 50 50 50 51 52 52 53 53 54 55 55 55 54 55 55 55 55 55 55 55 56 56 56 55 55 55 55 55 55 56 57 55 53 52 53 54 54 54 54 54 54 54 54 54 54 54 54 54 55 55 56 56 56 56 56 56 55 56 56 56 56 56 56 57 57 58 58 58 57 56
48 48 49 49 47 47 47 47 48 49 50 50 50 51 50 50 50 50 50 51 51 51 52 52 53 54 54 54 54 53 53 53 53 54 54 54 55 55 55 55 55 54 54 54 54 54 53 53 52 52 52 52 52 52 52 53 53 53 53 54 54 53 52 53 53 53 53 54 54 55 55 55 55 55 55 54 54 54 55 56 57 57 58 58 58
49 49 50 50 49 48 48 48 49 50 50 51 51 52 51 51 51 50 50 50 50 50 50 51 52 52 53 53 52 52 52 52 52 53 53 53 54 54 54 54 54 53 52 53 53 52 52 53 52 51 50 49 50 50 51 51 51 52 52 52 52 52 51 51 50 50 51 52 52 54 55 55 55 55 55 54 54 54 54 55 56 56 57 57 58
50 51 51 51 50 49 49 50 50 51 51 52 52 52 52 52 51 50 50 50 50 50 50 50 50 51 52 52 51 51 52 52 52 52 53 53 53 53 53 53 53 52 52 52 53 52 52 52 51 50 49 48 49 49 48 48 48 49 49 50 50 50 49 49 49 49 50 50 51 53 54 54 54 53 53 52 52 52 53 54 55 56 57 57 58
52 52 52 52 51 50 50 51 51 52 52 52 53 53 52 52 51 51 50 50 50 50 49 49 49 49 50 51 50 50 51 52 51 52 52 53 53 53 52 51 51 51 52 53 52 51 51 51 51 50 48 48 48 47 46 46 46 46 46 48 48 47 46 47 48 48 48 50 52 53 53 52 51 51 51 51 52 53 55 56 57 58 58 59 59
52 52 53 53 51 51 51 52 52 52 53 53 53 53 53 52 52 51 51 50 50 50 49 48 48 48 49 49 49 49 50 50 51 51 51 52 52 51 50 50 51 51 52 52 51 50 50 50 50 49 48 47 47 46 45 44 44 44 45 45 45 45 45 46 47 48 49 51 51 51 51 51 51 51 52 54 56 58 60 61 61 61 60 60 61
53 53 54 53 52 52 52 52 52 53 53 53 54 53 53 53 52 52 51 51 50 48 47 47 47 47 48 48 48 48 48 49 50 51 51 52 51 51 50 50 50 50 50 50 50 49 49 49 49 48 48 46 46 45 44 43 42 42 42 42 42 43 44 46 48 50 51 51 50 50 50 51 52 53 56 58 60 61 62 62 61 61 61 61 60
54 54 55 54 53 53 53 53 53 53 53 54 54 54 54 53 52 52 52 51 49 48 48 47 46 46 47 48 48 48 49 50 51 51 51 51 51 51 50 49 49 49 49 49 49 48 48 49 48 48 47 46 45 45 43 42 41 40 40 40 42 43 45 47 50 51 50 50 50 50 51 52 54 56 58 59 60 60 59 59 59 58 58 58 58
55 55 55 55 54 54 54 54 54 54 54 55 55 55 55 54 53 52 52 52 51 50 50 49 48 47 48 49 50 50 50 51 51 50 50 51 51 51 50 50 50 50 50 50 50 49 49 48 48 47 47 46 45 44 42 42 41 40 40 42 43 44 46 48 49 49 49 49 50 51 53 54 55 56 57 57 57 57 56 56 56 56 56 55 55
56 56 57 56 56 55 56 56 56 56 56 57 56 56 55 55 54 53 52 52 52 51 50 50 49 49 49 50 50 51 51 51 51 51 50 51 51 51 51 52 51 51 51 51 50 48 47 46 45 43 42 42 41 39 38 38 39 40 41 41 42 43 43 44 45 46 47 48 50 52 53 54 54 54 55 55 54 54 53 53 52 52 52 52 52
58 58 58 57 57 57 57 57 56 57 58 58 57 56 56 56 55 54 53 53 53 52 52 51 50 51 51 51 51 52 52 52 52 52 51 51 51 51 51 51 50 49 48 47 45 43 41 40 38 36 34 34 33 32 32 35 38 39 38 38 38 39 39 40 42 44 45 47 49 50 50 51 51 52 52 51 51 50 50 49 49 48 48 48 48
60 59 59 59 58 58 58 58 58 58 59 58 57 57 57 56 55 55 54 54 53 52 52 52 51 51 51 51 52 52 52 52 52 52 51 50 50 49 48 46 45 43 41 39 37 35 33 33 32 30 28 28 29 30 32 35 36 36 36 36 36 37 37 39 41 42 43 45 45 46 47 47 48 48 48 49 49 49 48 48 47 47 46 46 46
Wind_Direction
265 266 270 274 273 272 278 281 279 279 278 277 278 278 279 279 280 281 281 279 278 277 276 274 273 272 269 267 267 267 263 257 253 251 252 254 256 257 257 258 261 263 264 265 266 266 265 267 269 268 266 267 268 267 267 264 260 263 268 266 260 257 256 258 261 260 259 260 258 256 257 256 253 246 240 237 237 235 234 234 231 230 230 231 233
267 267 271 274 272 272 278 279 277 277 277 277 277 278 280 280 280 281 280 279 279 278 278 274 272 271 270 269 268 267 266 262 258 256 256 258 259 261 261 262 264 265 266 266 267 267 266 266 268 268 267 267 268 267 266 264 262 263 265 265 263 259 258 263 266 265 263 262 259 255 254 254 252 249 245 243 241 238 235 235 235 233 232 232 233
266 268 273 273 271 274 278 278 277 278 278 278 279 281 282 281 281 281 280 281 281 281 281 277 273 270 269 269 268 268 267 265 263 261 261 262 263 264 265 266 267 267 266 265 266 267 267 267 266 267 267 267 268 268 266 264 261 261 263 265 264 262 264 266 267 266 264 264 262 259 254 252 253 253 248 244 244 244 238 235 236 235 233 233 234
263 267 270 271 273 276 277 277 277 278 280 282 283 283 283 283 283 282 282 282 284 285 284 281 276 271 269 268 267 267 266 266 265 265 264 265 265 266 267 267 267 266 266 265 265 266 267 268 267 267 267 267 268 268 267 266 263 263 265 266 264 264 267 266 265 265 264 264 266 267 262 257 259 259 252 246 244 245 244 240 237 237 236 236 236
262 265 267 271 273 274 274 275 276 278 281 283 283 284 284 284 285 285 284 284 286 286 285 284 280 275 272 270 268 266 265 265 264 264 264 265 265 266 266 267 267 266 265 264 264 265 266 268 269 269 269 269 270 270 270 269 267 266 267 267 266 267 268 266 264 263 263 264 265 267 268 265 266 262 253 249 244 242 246 246 242 240 238 237 238
262 263 266 267 264 267 272 275 278 279 279 279 280 281 282 284 285 286 286 287 288 287 285 284 281 277 274 272 270 268 266 265 264 264 264 264 264 265 265 265 266 265 265 264 264 265 266 267 269 270 269 270 271 272 273 273 272 270 270 270 269 269 269 268 266 264 263 262 262 265 267 265 263 260 257 255 246 239 241 244 245 242 239 237 237
263 263 264 259 255 264 270 271 274 275 274 275 276 278 280 281 283 284 286 288 289 288 286 283 280 277 275 272 270 270 269 268 267 266 266 265 265 265 264 264 264 264 264 264 264 264 265 267 268 269 270 270 271 272 273 274 274 274 273 272 271 270 270 269 267 266 265 263 262 263 266 265 261 261 261 259 255 247 241 241 242 242 240 239 238
263 265 265 259 254 258 261 263 266 267 269 271 273 276 278 279 281 283 286 288 290 290 287 284 280 275 273 271 269 269 270 269 269 268 268 267 266 265 264 263 263 262 262 263 263 264 265 266 267 269 270 271 271 272 273 274 274 274 274 273 273 272 270 269 268 267 266 264 263 263 265 266 262 261 263 263 264 263 255 246 243 242 242 241 240
261 263 264 263 258 254 255 258 260 261 264 267 270 273 275 277 280 283 286 288 289 289 287 285 282 277 272 270 268 268 268 269 269 268 267 267 266 265 264 264 264 264 264 264 264 265 265 266 267 268 270 272 272 272 273 273 273 274 273 272 271 270 269 268 267 267 266 264 264 262 263 263 260 259 262 265 268 268 268 268 261 250 245 243 241
257 258 259 260 258 256 254 254 255 257 260 263 266 269 272 275 277 280 283 285 287 287 284 282 281 278 274 270 269 268 268 268 267 266 265 265 265 264 264 265 265 266 266 266 265 265 265 266 266 268 270 272 273 274 273 273 273 273 272 271 270 270 269 267 267 267 268 266 264 263 262 263 261 260 262 265 269 270 271 273 274 268 256 247 243
254 255 255 256 256 256 255 253 253 255 258 260 263 266 269 272 274 277 281 283 284 281 277 277 278 278 275 272 271 270 269 268 266 265 264 263 264 264 265 266 266 266 267 267 266 266 266 266 266 268 270 273 274 275 274 273 273 273 272 271 269 269 269 268 267 268 269 268 267 266 265 265 265 263 264 267 269 270 271 271 272 274 268 253 243
254 254 254 254 254 254 254 254 254 254 257 259 260 263 267 269 271 274 278 281 278 274 273 275 277 278 278 277 275 273 271 269 267 266 264 264 264 265 266 267 268 268 267 268 268 267 267 267 268 269 271 272 274 274 274 274 274 274 273 272 270 269 269 268 267 266 268 268 267 265 265 266 266 266 265 266 269 270 272 272 270 272 272 262 245
253 251 251 250 250 250 251 252 253 253 253 255 256 258 261 264 268 272 276 275 271 271 274 276 278 281 282 281 279 275 273 272 270 268 266 265 265 266 266 267 267 268 268 268 267 267 268 269 270 272 273 275 276 275 275 275 275 275 275 273 271 270 269 268 267 267 266 266 266 264 262 262 264 265 266 266 268 270 271 273 272 270 271 270 259
251 249 249 249 247 246 247 249 252 251 249 250 251 251 255 260 266 270 270 267 267 271 275 277 279 281 282 282 280 277 273 271 270 268 266 264 264 265 265 266 266 266 266 266 266 266 266 268 270 273 274 276 277 277 277 277 277 277 277 276 274 272 270 268 266 266 266 265 265 264 262 261 260 262 264 266 267 268 270 272 274 273 271 270 269
249 248 248 247 245 244 246 247 250 250 247 247 246 247 251 257 261 263 262 261 265 269 272 276 276 277 279 279 279 277 274 271 269 267 265 263 262 262 262 263 264 265 265 265 265 265 265 266 268 270 272 274 274 276 277 278 279 280 280 280 277 274 271 269 266 265 265 264 263 262 261 261 260 260 262 265 266 266 268 269 270 271 272 270 269
249 247 244 242 240 241 242 243 246 248 246 245 245 245 247 250 252 255 256 257 260 264 268 272 272 273 275 276 276 274 271 268 267 266 265 264 263 263 263 263 263 265 265 265 265 265 265 266 268 269 271 271 271 272 273 275 277 279 280 281 279 276 272 270 268 266 265 265 262 261 260 260 260 260 260 262 264 265 265 265 266 266 266 267 268
247 244 240 237 236 235 236 235 237 240 242 241 239 238 239 241 244 249 251 252 255 259 265 268 270 271 270 270 270 268 267 267 266 264 263 263 262 263 263 263 263 263 263 264 264 264 265 266 268 270 272 272 273 272 272 272 273 275 276 277 276 275 273 270 268 267 267 267 266 263 262 261 260 261 262 262 263 265 265 263 263 264 264 265 266
245 241 239 237 234 233 233 232 232 233 233 235 236 235 236 238 241 245 248 250 252 256 262 266 268 269 268 267 267 267 269 267 262 260 258 258 260 262 264 265 265 265 264 263 264 264 264 264 266 268 270 271 273 274 275 275 275 276 276 276 275 273 272 270 268 267 268 269 270 269 268 266 265 265 265 265 265 265 266 263 261 261 263 265 266
244 239 239 239 235 233 233 232 232 232 232 235 237 236 237 239 241 244 247 249 251 255 259 263 266 266 268 269 268 268 268 263 257 256 257 260 262 264 266 268 269 269 269 267 266 264 263 263 263 264 266 268 269 270 271 272 274 275 276 278 278 277 275 272 269 267 267 267 269 270 270 271 271 271 270 270 269 268 267 265 263 261 261 263 266
245 241 240 240 236 235 238 236 232 231 233 235 237 237 238 239 240 243 246 248 249 252 255 259 263 265 267 268 266 266 264 260 258 260 261 262 263 265 267 268 270 271 271 270 270 268 267 264 263 262 263 266 267 268 268 268 268 270 272 274 276 277 278 277 275 272 269 267 267 266 267 267 269 271 271 272 272 271 270 269 267 265 263 262 263
244 242 240 240 238 236 240 241 236 232 231 232 233 235 238 239 238 240 244 246 246 249 253 257 260 262 264 263 263 263 262 260 258 260 263 264 264 265 263 264 266 267 268 270 271 272 271 270 268 265 262 261 263 265 267 267 266 266 268 270 273 275 276 276 277 276 274 272 269 267 266 265 265 266 268 269 270 271 270 270 269 268 266 265 264
241 239 238 240 241 239 238 241 242 240 238 238 238 237 237 237 239 240 241 244 246 248 250 252 252 253 255 258 261 262 262 260 257 258 262 264 265 265 263 265 265 262 262 265 266 268 269 268 267 265 263 261 261 263 267 270 272 272 272 272 273 274 275 275 275 276 275 274 272 270 268 266 265 264 264 265 266 268 268 268 268 268 267 266 265
242 238 236 236 239 241 241 241 244 246 247 248 248 247 242 238 238 239 242 248 250 249 248 249 249 248 250 255 259 262 261 259 258 261 263 262 262 263 266 270 269 265 264 264 262 262 263 263 261 261 262 263 264 266 270 273 276 279 280 280 279 278 277 276 276 275 275 273 271 270 269 268 268 266 265 264 263 263 264 265 266 267 267 267 266
244 240 238 236 235 237 241 242 243 246 249 250 251 251 249 246 245 246 249 255 254 250 246 246 247 247 250 255 258 260 261 260 261 264 264 262 260 260 263 267 267 269 271 268 265 261 259 259 258 258 260 261 262 266 269 271 273 276 280 283 283 283 282 280 279 278 276 275 273 270 269 268 268 267 267 266 266 265 264 264 264 264 266 267 267
246 242 240 239 236 234 236 238 241 244 248 250 252 252 252 252 254 254 255 256 255 250 248 249 250 249 252 257 258 258 261 262 261 261 262 263 260 260 264 267 269 271 270 268 268 265 260 257 257 258 261 260 259 260 261 264 267 269 273 277 280 284 285 285 285 283 282 280 278 276 274 271 269 268 267 266 266 266 266 266 266 265 265 266 267
253 245 242 241 239 237 235 235 237 239 242 246 249 252 253 252 252 254 253 253 253 251 251 254 256 255 257 261 261 257 257 259 260 260 261 261 259 259 263 268 269 269 266 265 267 267 265 263 261 259 260 259 258 258 259 261 264 267 269 272 276 280 282 284 285 286 286 284 282 280 279 277 275 273 271 269 267 266 266 266 266 266 266 265 266
260 253 247 243 242 242 240 238 239 239 240 242 244 247 251 252 252 254 254 253 252 251 252 255 258 258 259 261 261 257 253 256 261 262 261 262 261 259 260 265 265 264 263 263 264 266 268 270 266 260 258 260 261 262 264 265 268 271 271 274 278 279 280 281 282 284 285 284 283 282 280 279 278 277 275 274 272 270 269 267 266 266 266 265 265
263 258 253 248 244 243 243 243 243 244 244 245 246 245 247 249 252 254 255 255 255 255 255 256 257 257 257 258 259 258 257 258 261 262 262 262 261 258 260 265 264 260 260 261 262 264 267 269 270 266 262 262 263 265 268 270 272 276 277 278 280 281 280 280 280 281 282 283 283 282 281 279 278 277 277 276 275 274 273 271 270 268 268 267 266
261 259 254 250 246 243 244 245 245 247 248 249 250 250 250 250 251 252 253 254 255 255 254 254 255 256 257 257 257 258 260 259 259 259 260 260 260 260 261 263 259 255 257 262 264 266 266 267 270 271 267 265 265 267 269 271 274 277 278 279 281 281 282 282 282 280 280 283 284 282 281 280 279 278 277 276 276 275 275 274 273 272 270 269 268
260 257 253 251 248 244 244 246 247 248 250 251 252 253 253 253 253 252 252 253 253 253 253 254 255 256 257 257 256 255 256 257 256 255 255 255 257 259 259 255 252 252 257 262 265 268 268 268 269 271 270 269 268 268 270 272 274 275 276 278 279 281 282 283 283 282 280 281 283 282 279 279 279 279 279 277 276 276 276 275 274 273 272 271 269
261 257 253 251 250 248 247 248 249 250 251 252 252 252 253 253 252 250 250 253 254 253 252 254 254 254 256 258 258 257 256 256 256 256 257 257 259 261 259 257 256 257 259 261 263 266 269 269 269 270 271 271 271 271 273 274 275 275 276 278 280 282 283 283 283 282 280 281 282 281 279 280 280 281 281 280 279 278 277 277 274 272 271 271 271
259 257 255 252 253 254 253 252 254 255 254 254 253 252 252 251 251 249 247 248 250 250 249 250 251 251 254 256 257 258 257 258 257 258 258 259 261 262 262 263 263 263 262 263 265 266 268 269 270 271 271 272 272 274 275 275 275 276 278 280 282 283 283 282 281 281 281 283 283 281 281 282 282 281 282 282 281 279 278 277 276 273 271 270 270
258 257 255 255 257 259 258 257 259 260 259 257 256 254 253 251 251 250 247 246 248 249 249 250 250 250 251 252 254 256 257 258 259 260 260 261 262 264 265 265 264 263 263 264 266 267 268 269 270 270 271 271 272 273 274 276 277 277 279 280 282 282 281 281 281 281 283 284 284 283 282 283 282 281 281 280 281 280 279 277 276 274 273 271 271
258 257 257 259 262 263 262 261 263 263 262 260 258 256 255 253 252 251 250 249 249 249 251 252 253 253 252 251 252 253 254 255 257 258 260 260 261 263 265 266 265 264 264 265 267 267 268 268 268 268 268 269 271 272 273 275 277 278 279 279 280 281 281 281 281 282 283 285 285 285 284 284 283 282 280 279 278 278 277 277 276 275 273 272 270
257 258 260 263 265 265 264 263 264 263 260 259 258 257 256 256 255 254 253 252 251 251 252 252 253 255 255 255 255 256 256 256 256 258 259 260 260 262 265 266 267 267 266 267 267 268 268 268 268 268 269 270 272 272 273 275 277 278 279 279 279 280 280 280 281 283 283 283 284 284 284 283 283 281 279 278 276 274 274 274 274 274 273 272 270
256 259 261 263 264 264 264 264 264 263 261 260 259 258 257 257 256 256 255 255 254 254 254 254 254 255 256 257 258 259 259 259 260 261 261 262 263 264 265 266 267 268 269 269 269 269 269 270 270 270 271 272 274 274 274 275 276 277 278 279 279 278 277 279 281 283 282 282 283 283 283 283 281 279 278 276 275 274 273 273 272 272 272 272 272
257 259 260 262 263 264 264 265 265 265 264 263 261 259 258 257 257 257 256 256 256 255 256 256 256 257 257 258 259 259 260 260 260 261 262 263 263 263 264 265 266 268 269 270 270 270 271 271 272 272 273 274 274 275 275 276 276 276 277 277 277 277 278 279 280 281 282 282 282 282 282 281 279 277 277 276 275 275 274 273 272 272 272 271 271
257 257 259 260 262 262 263 264 265 264 264 263 262 261 260 259 258 258 258 257 257 256 256 256 257 257 257 258 259 260 260 260 260 261 261 262 263 263 264 265 266 267 269 270 270 271 272 273 274 274 275 275 275 276 276 276 276 276 276 276 277 277 278 278 279 280 281 281 281 281 280 278 276 276 277 278 277 276 275 274 273 272 272 271 271
256 257 259 260 262 262 262 263 264 264 264 264 263 262 262 261 260 259 258 258 258 258 258 258 258 258 258 258 258 258 259 259 260 261 261 262 263 264 264 265 266 267 269 270 270 271 272 273 274 274 274 274 275 275 275 275 275 275 274 275 275 275 276 277 278 279 280 280 280 279 278 276 276 277 278 278 278 277 276 275 274 273 272 271 271
257 258 260 262 263 263 263 264 264 264 264 264 264 263 263 262 261 260 259 259 259 259 259 260 260 260 260 260 259 259 259 259 259 259 260 261 262 263 264 265 265 266 267 268 269 270 271 272 271 271 272 272 273 273 273 273 272 272 272 272 273 274 274 275 276 277 278 279 279 279 278 277 277 277 278 278 278 278 277 277 276 275 274 273 271
257 259 261 263 264 263 263 264 264 264 264 264 263 263 263 262 261 261 260 260 259 259 259 260 260 261 261 261 260 260 259 259 258 258 259 259 260 261 262 263 264 265 266 267 268 268 269 269 268 268 269 270 271 271 271 270 270 270 270 271 271 272 273 274 275 276 277 277 278 278 278 278 278 279 279 279 279 279 278 278 277 276 275 275 273
257 258 260 261 262 262 262 263 262 263 263 263 263 263 263 262 262 261 261 260 260 259 259 259 259 260 260 260 260 260 260 259 258 258 258 258 259 259 260 261 262 263 264 266 266 266 267 267 268 268 269 269 269 269 269 269 268 269 269 269 269 270 271 272 274 275 276 277 278 278 279 280 280 280 280 280 280 279 278 278 277 277 277 276 275
258 258 259 260 261 261 261 261 261 261 262 262 262 263 263 263 262 262 261 261 261 260 259 259 259 259 259 259 259 259 259 259 259 258 258 259 259 259 259 260 261 262 263 263 264 265 266 267 268 268 268 268 267 267 267 267 266 266 266 267 268 270 271 273 274 275 277 278 278 279 280 280 280 280 281 281 280 280 280 279 279 279 278 277 275
258 259 259 260 260 260 260 260 260 260 261 261 262 262 262 262 262 262 262 262 262 261 261 260 260 259 260 259 259 258 258 258 258 258 259 259 259 259 260 260 261 261 261 262 263 264 265 266 267 268 268 267 267 266 266 266 265 265 265 266 268 270 272 273 274 275 277 278 278 278 278 279 280 281 282 282 283 284 284 284 283 281 279 278 276
259 259 259 260 260 259 259 259 260 260 260 260 260 261 262 262 262 263 263 263 262 262 262 261 261 260 261 261 260 259 258 258 258 258 258 258 259 260 260 260 260 260 261 262 262 262 264 265 266 266 267 266 265 264 265 265 266 266 266 266 267 269 271 272 273 276 277 277 275 274 276 278 280 282 284 285 286 286 285 284 283 281 279 277 275
260 260 260 261 261 260 260 260 260 260 261 261 261 261 261 262 262 263 263 263 263 262 261 261 260 261 261 262 262 261 260 260 259 259 258 259 260 260 260 260 260 260 261 261 261 262 263 264 263 263 264 264 263 263 263 265 266 266 265 264 264 267 270 272 275 276 274 272 271 274 277 280 281 283 284 285 285 285 285 285 283 282 281 279 277
260 260 261 261 261 261 261 260 260 260 260 261 261 261 261 261 262 262 263 263 263 263 263 263 262 262 263 263 263 262 261 260 259 259 259 259 260 260 260 260 261 261 261 262 262 263 264 263 262 262 262 262 261 261 262 264 264 264 264 262 262 267 271 273 274 273 271 271 274 278 280 281 281 283 284 285 286 286 285 284 283 281 280 279 277
260 260 260 260 261 261 261 261 261 260 261 260 260 260 261 261 261 261 262 263 263 263 263 264 264 264 263 263 264 263 262 262 261 260 260 259 259 260 260 261 262 263 263 264 264 265 265 264 264 263 262 261 260 261 261 261 260 261 263 263 263 266 270 272 272 271 271 274 277 278 279 280 282 284 285 286 285 285 284 284 282 281 280 278 277
260 260 260 260 260 259 260 260 260 261 261 261 261 262 262 262 262 262 262 263 263 263 263 264 264 264 264 264 264 264 264 263 263 262 261 260 260 260 261 261 262 263 263 264 265 265 266 266 265 264 263 261 260 258 257 256 257 261 263 262 263 267 270 270 269 270 272 276 278 280 282 283 285 286 286 286 285 285 285 284 284 283 281 280 278
261 261 261 261 261 260 260 260 261 261 261 262 262 263 263 263 263 263 263 263 263 264 264 264 265 265 265 265 265 265 265 265 265 264 263 262 262 262 262 262 262 262 263 263 264 264 264 263 261 260 258 255 252 250 250 254 258 261 262 263 266 268 269 269 271 273 276 279 282 284 286 286 287 287 286 286 287 287 287 286 286 285 283 281 279
263 263 263 262 262 262 262 262 262 262 262 262 262 262 263 263 263 263 263 262 262 262 263 264 264 264 265 265 265 265 266 265 265 264 264 264 263 263 263 263 262 261 260 259 258 256 254 252 251 248 245 246 248 250 253 255 257 260 263 266 267 269 271 274 277 280 282 284 286 287 287 288 288 289 290 291 292 292 292 291 290 289 287 285 283
Height
5757 5759 5759 5760 5761 5760 5760 5761 5763 5763 5763 5763 5763 5763 5763 5763 5764 5765 5766 5766 5766 5766 5766 5766 5766 5766 5766 5766 5766 5767 5768 5769 5769 5770 5770 5771 5772 5773 5773 5773 5774 5774 5774 5774 5774 5774 5774 5773 5773 5775 5776 5775 5775 5776 5778 5778 5777 5777 5777 5777 5778 5779 5778 5779 5780 5781 5781 5781 5782 5782 5783 5783 5783 5784 5785 5786 5787 5788 5790 5792 5793 5795 5796 5798 5799
5755 5757 5757 5757 5758 5758 5759 5760 5761 5761 5761 5761 5761 5761 5761 5761 5762 5763 5763 5763 5763 5764 5764 5764 5765 5764 5764 5764 5764 5764 5765 5766 5767 5767 5767 5768 5769 5769 5770 5771 5771 5771 5771 5771 5771 5771 5772 5772 5772 5773 5773 5773 5773 5774 5775 5776 5775 5774 5775 5776 5776 5776 5776 5777 5778 5778 5778 5779 5779 5779 5780 5781 5781 5782 5782 5782 5783 5784 5786 5788 5790 5792 5793 5794 5795
5753 5755 5755 5754 5755 5755 5757 5759 5759 5758 5758 5758 5758 5759 5760 5760 5760 5760 5761 5761 5761 5761 5761 5762 5763 5763 5762 5761 5762 5762 5762 5763 5763 5764 5764 5765 5765 5766 5767 5768 5768 5769 5769 5769 5768 5768 5768 5769 5770 5770 5771 5771 5771 5771 5772 5773 5772 5772 5772 5774 5774 5774 5774 5775 5775 5775 5776 5776 5776 5776 5777 5778 5778 5779 5778 5779 5780 5781 5782 5783 5785 5787 5788 5789 5791
5752 5754 5754 5752 5752 5753 5755 5756 5757 5756 5756 5755 5755 5756 5757 5757 5757 5757 5758 5759 5758 5758 5758 5759 5760 5760 5760 5760 5760 5760 5760 5760 5761 5761 5762 5762 5763 5763 5764 5765 5765 5766 5766 5766 5766 5766 5766 5766 5767 5768 5768 5768 5768 5768 5769 5769 5770 5769 5770 5771 5771 5771 5771 5772 5772 5772 5773 5773 5773 5773 5774 5774 5774 5775 5775 5775 5777 5777 5778 5779 5781 5783 5785 5786 5788
5752 5752 5753 5751 5751 5752 5753 5753 5754 5754 5754 5753 5753 5753 5754 5754 5754 5754 5755 5756 5756 5756 5756 5757 5758 5758 5758 5758 5757 5758 5758 5758 5758 5759 5759 5759 5760 5760 5761 5762 5762 5763 5763 5764 5764 5764 5763 5763 5763 5765 5765 5765 5765 5766 5766 5766 5766 5767 5767 5767 5767 5767 5767 5768 5769 5769 5769 5770 5770 5770 5770 5771 5771 5772 5771 5772 5773 5773 5774 5775 5777 5779 5781 5783 5785
5750 5750 5750 5751 5751 5751 5750 5751 5751 5752 5752 5751 5751 5751 5751 5751 5751 5751 5752 5753 5753 5753 5753 5754 5755 5755 5755 5755 5755 5755 5755 5755 5756 5756 5756 5757 5757 5758 5758 5759 5759 5760 5760 5761 5761 5761 5761 5760 5760 5761 5762 5763 5763 5763 5763 5763 5763 5763 5764 5764 5764 5764 5764 5764 5765 5765 5766 5766 5766 5767 5767 5768 5768 5769 5769 5769 5769 5770 5770 5771 5773 5775 5777 5779 5781
5747 5747 5748 5749 5750 5749 5748 5749 5749 5750 5749 5749 5748 5748 5748 5749 5749 5748 5749 5750 5751 5751 5751 5752 5753 5753 5753 5753 5753 5753 5753 5753 5753 5754 5754 5754 5754 5755 5755 5756 5756 5757 5757 5758 5758 5758 5758 5758 5758 5758 5759 5759 5760 5760 5760 5760 5760 5760 5761 5761 5761 5761 5761 5761 5762 5762 5763 5763 5763 5764 5765 5765 5766 5766 5766 5766 5766 5767 5767 5768 5770 5771 5773 5774 5776
5744 5744 5744 5746 5747 5747 5747 5747 5747 5747 5747 5746 5746 5746 5746 5746 5746 5746 5746 5747 5748 5749 5748 5749 5750 5750 5750 5750 5750 5751 5750 5750 5751 5751 5751 5751 5752 5752 5752 5753 5753 5754 5754 5755 5755 5755 5755 5755 5755 5755 5755 5756 5756 5757 5757 5757 5757 5757 5758 5758 5758 5758 5758 5758 5759 5759 5760 5760 5760 5760 5761 5763 5763 5763 5763 5764 5764 5764 5765 5765 5767 5768 5768 5770 5772
5742 5742 5741 5742 5743 5745 5746 5745 5745 5745 5745 5744 5744 5744 5743 5744 5743 5743 5744 5745 5746 5746 5745 5746 5747 5747 5747 5747 5748 5748 5748 5748 5748 5748 5749 5749 5749 5749 5750 5750 5750 5751 5751 5752 5752 5752 5753 5753 5753 5753 5752 5752 5753 5754 5754 5754 5754 5754 5755 5755 5754 5754 5755 5755 5756 5756 5757 5758 5758 5758 5758 5759 5761 5761 5761 5761 5761 5762 5763 5764 5764 5765 5765 5766 5767
5739 5739 5739 5739 5740 5741 5742 5742 5742 5743 5743 5743 5742 5741 5741 5741 5741 5741 5742 5743 5743 5743 5743 5743 5744 5744 5744 5744 5745 5745 5746 5746 5746 5746 5746 5747 5747 5747 5747 5748 5748 5748 5749 5749 5749 5750 5750 5750 5750 5750 5750 5750 5750 5750 5751 5751 5751 5751 5751 5752 5752 5751 5752 5752 5752 5753 5753 5755 5755 5755 5755 5756 5757 5758 5758 5758 5758 5760 5761 5762 5762 5762 5762 5762 5763
5736 5736 5737 5737 5737 5738 5738 5739 5740 5740 5740 5740 5740 5740 5739 5739 5739 5739 5739 5740 5740 5740 5740 5741 5741 5741 5741 5741 5742 5742 5743 5743 5744 5744 5744 5744 5745 5745 5745 5746 5746 5746 5746 5746 5747 5747 5747 5747 5748 5748 5748 5747 5747 5748 5748 5748 5748 5748 5749 5749 5749 5749 5749 5749 5750 5750 5750 5751 5752 5752 5752 5753 5754 5755 5755 5755 5755 5756 5757 5759 5760 5760 5760 5760 5760
5732 5732 5733 5734 5735 5735 5735 5736 5736 5736 5737 5737 5738 5737 5736 5736 5736 5736 5737 5738 5738 5737 5737 5738 5738 5738 5739 5739 5739 5740 5740 5741 5741 5742 5742 5742 5743 5743 5743 5743 5744 5744 5744 5744 5744 5744 5745 5745 5745 5745 5745 5745 5745 5745 5745 5746 5746 5746 5746 5747 5747 5747 5747 5747 5747 5748 5748 5748 5749 5749 5750 5750 5750 5751 5752 5753 5753 5753 5754 5755 5756 5757 5757 5758 5758
5728 5728 5729 5730 5731 5732 5732 5732 5732 5733 5734 5734 5734 5735 5734 5733 5733 5734 5735 5735 5735 5735 5735 5736 5736 5736 5736 5736 5737 5737 5738 5738 5739 5740 5740 5741 5741 5741 5741 5741 5741 5741 5742 5742 5742 5742 5742 5742 5742 5742 5742 5742 5742 5742 5743 5743 5743 5744 5744 5745 5745 5745 5745 5745 5745 5745 5746 5746 5747 5747 5747 5748 5748 5749 5749 5750 5750 5750 5750 5751 5752 5754 5755 5755 5756
5723 5724 5724 5725 5727 5727 5728 5728 5728 5729 5730 5730 5731 5731 5730 5731 5731 5732 5733 5733 5733 5733 5733 5734 5734 5734 5734 5734 5735 5735 5735 5736 5737 5737 5738 5738 5739 5739 5739 5739 5739 5739 5739 5739 5740 5740 5740 5740 5740 5740 5740 5740 5740 5740 5740 5741 5741 5741 5742 5743 5743 5743 5743 5743 5743 5743 5743 5744 5744 5745 5745 5746 5746 5747 5747 5747 5748 5748 5748 5748 5749 5750 5751 5752 5753
5719 5719 5720 5721 5722 5723 5724 5724 5724 5725 5725 5726 5727 5727 5728 5729 5730 5730 5730 5730 5730 5730 5731 5731 5732 5732 5732 5733 5733 5733 5733 5734 5734 5735 5735 5736 5736 5736 5737 5737 5737 5737 5737 5737 5737 5738 5738 5738 5739 5739 5739 5739 5738 5738 5738 5738 5739 5739 5740 5740 5741 5741 5742 5742 5742 5742 5742 5742 5742 5743 5743 5743 5744 5744 5745 5745 5745 5746 5746 5746 5746 5747 5748 5748 5750
5716 5716 5717 5717 5718 5719 5720 5721 5721 5721 5721 5722 5723 5724 5725 5727 5727 5727 5727 5728 5728 5728 5728 5729 5729 5730 5730 5730 5731 5731 5731 5731 5732 5732 5733 5733 5734 5734 5734 5734 5735 5735 5735 5735 5735 5735 5736 5736 5736 5737 5737 5737 5737 5737 5737 5737 5737 5737 5738 5738 5739 5739 5740 5740 5740 5741 5741 5741 5741 5741 5741 5741 5742 5742 5743 5743 5743 5744 5744 5744 5744 5745 5745 5746 5746
5713 5713 5714 5715 5715 5716 5717 5718 5718 5718 5718 5719 5720 5722 5723 5724 5724 5724 5724 5724 5725 5725 5726 5726 5727 5727 5728 5728 5729 5729 5729 5729 5730 5730 5730 5731 5731 5731 5731 5732 5732 5732 5732 5733 5733 5733 5733 5734 5734 5735 5735 5735 5735 5735 5735 5736 5736 5736 5736 5736 5737 5737 5738 5738 5739 5739 5739 5739 5740 5740 5740 5740 5740 5740 5741 5741 5741 5742 5742 5743 5743 5743 5743 5744 5744
5710 5711 5711 5712 5713 5713 5714 5715 5715 5716 5716 5717 5718 5719 5720 5721 5721 5721 5721 5721 5722 5722 5723 5724 5724 5725 5725 5726 5726 5727 5727 5727 5727 5728 5728 5728 5728 5728 5729 5729 5730 5730 5731 5731 5731 5731 5731 5732 5732 5732 5733 5733 5733 5733 5734 5734 5734 5734 5734 5735 5735 5735 5736 5736 5737 5737 5738 5738 5738 5739 5739 5739 5739 5739 5739 5740 5740 5740 5741 5741 5741 5742 5742 5742 5743
5707 5708 5708 5709 5710 5710 5711 5712 5712 5713 5713 5714 5715 5716 5717 5717 5717 5718 5718 5718 5719 5720 5721 5722 5722 5722 5722 5723 5724 5724 5724 5725 5725 5725 5725 5726 5726 5726 5726 5727 5727 5728 5728 5729 5729 5729 5729 5729 5730 5730 5730 5731 5731 5731 5731 5732 5732 5732 5733 5733 5733 5733 5734 5734 5735 5735 5736 5736 5736 5737 5737 5738 5738 5738 5738 5738 5739 5739 5739 5740 5740 5740 5741 5741 5741
5705 5705 5706 5706 5707 5707 5708 5709 5709 5710 5710 5711 5712 5712 5713 5713 5714 5714 5714 5715 5716 5717 5718 5718 5719 5719 5719 5720 5720 5721 5721 5722 5723 5723 5723 5723 5723 5723 5724 5724 5725 5725 5726 5726 5727 5727 5727 5727 5727 5728 5728 5728 5728 5729 5729 5729 5730 5730 5730 5730 5731 5731 5731 5732 5733 5733 5734 5734 5734 5735 5735 5736 5736 5736 5737 5737 5737 5737 5737 5738 5738 5738 5739 5739 5739
5702 5702 5703 5703 5704 5705 5705 5705 5706 5706 5706 5707 5707 5708 5709 5709 5709 5710 5710 5711 5713 5714 5714 5714 5715 5715 5716 5716 5717 5717 5718 5718 5720 5720 5720 5720 5720 5720 5721 5721 5722 5723 5723 5724 5724 5725 5725 5725 5725 5725 5725 5726 5726 5726 5726 5726 5727 5727 5728 5728 5728 5728 5729 5729 5730 5730 5731 5732 5732 5732 5733 5733 5734 5734 5735 5735 5735 5735 5736 5736 5736 5736 5736 5736 5737
5699 5699 5700 5700 5701 5702 5702 5702 5702 5703 5703 5703 5703 5704 5704 5704 5705 5706 5707 5707 5708 5710 5710 5711 5711 5712 5712 5713 5713 5714 5714 5715 5716 5717 5718 5718 5718 5717 5718 5719 5720 5720 5720 5721 5721 5722 5723 5723 5723 5723 5723 5723 5724 5724 5724 5724 5724 5725 5725 5726 5726 5726 5726 5726 5727 5727 5728 5728 5729 5729 5729 5730 5730 5731 5731 5732 5732 5733 5733 5733 5733 5733 5734 5734 5734
5696 5697 5697 5697 5698 5698 5699 5699 5699 5699 5700 5700 5701 5701 5700 5700 5701 5702 5703 5704 5705 5706 5706 5707 5707 5708 5709 5709 5710 5711 5711 5712 5713 5713 5714 5716 5716 5715 5715 5716 5717 5717 5717 5718 5718 5718 5719 5719 5720 5720 5720 5720 5721 5721 5721 5721 5722 5722 5722 5723 5723 5723 5723 5723 5724 5725 5725 5725 5725 5726 5726 5726 5726 5727 5727 5728 5728 5729 5729 5730 5730 5730 5730 5731 5731
5693 5694 5694 5695 5695 5695 5695 5696 5696 5696 5696 5697 5697 5697 5697 5698 5699 5699 5700 5700 5701 5701 5701 5702 5704 5704 5705 5706 5707 5707 5707 5709 5710 5710 5710 5712 5712 5712 5712 5712 5713 5714 5715 5715 5715 5715 5715 5715 5716 5717 5717 5717 5718 5719 5719 5719 5718 5719 5719 5719 5719 5719 5720 5720 5721 5721 5722 5722 5722 5722 5723 5723 5723 5723 5723 5723 5724 5724 5725 5725 5726 5726 5727 5727 5727
5689 5690 5691 5691 5691 5692 5692 5692 5692 5692 5693 5693 5693 5694 5694 5695 5696 5696 5696 5697 5697 5697 5697 5698 5699 5700 5700 5701 5703 5703 5704 5705 5706 5706 5706 5707 5708 5708 5708 5708 5709 5710 5711 5711 5711 5712 5712 5712 5713 5714 5714 5715 5715 5715 5715 5715 5715 5715 5715 5715 5716 5716 5716 5716 5717 5717 5718 5718 5719 5719 5719 5719 5719 5719 5720 5720 5720 5720 5721 5721 5721 5722 5722 5723 5723
5684 5685 5686 5686 5687 5688 5688 5688 5688 5689 5689 5689 5689 5689 5690 5691 5691 5691 5692 5693 5693 5694 5694 5694 5695 5696 5697 5698 5698 5699 5700 5701 5701 5702 5703 5704 5704 5704 5705 5705 5705 5706 5706 5707 5707 5707 5708 5709 5710 5710 5711 5711 5711 5711 5711 5711 5711 5711 5711 5712 5712 5712 5713 5713 5713 5713 5714 5714 5714 5715 5715 5715 5715 5715 5715 5716 5716 5716 5717 5717 5717 5717 5718 5718 5718
5677 5678 5679 5680 5681 5682 5683 5683 5684 5684 5684 5685 5685 5685 5685 5686 5686 5686 5687 5687 5688 5689 5690 5690 5691 5692 5693 5694 5694 5695 5696 5697 5697 5698 5698 5699 5700 5700 5700 5701 5701 5701 5702 5703 5703 5703 5704 5705 5705 5706 5706 5706 5707 5707 5707 5707 5707 5707 5707 5708 5708 5709 5709 5709 5709 5709 5710 5710 5710 5710 5710 5710 5710 5710 5711 5711 5711 5712 5712 5712 5712 5713 5713 5714 5714
5670 5671 5672 5673 5674 5676 5677 5678 5678 5679 5679 5680 5680 5681 5681 5681 5681 5681 5681 5682 5683 5684 5685 5686 5686 5687 5687 5689 5690 5691 5692 5692 5693 5693 5693 5694 5695 5695 5696 5696 5697 5697 5698 5698 5699 5698 5699 5701 5700 5700 5701 5702 5703 5703 5703 5703 5703 5702 5702 5703 5704 5704 5705 5705 5706 5706 5706 5706 5706 5706 5705 5705 5705 5705 5706 5706 5706 5706 5707 5707 5707 5708 5708 5709 5709
5664 5665 5665 5666 5667 5669 5670 5671 5672 5673 5673 5674 5674 5675 5675 5676 5676 5677 5677 5678 5678 5679 5680 5681 5681 5681 5682 5683 5685 5686 5687 5687 5688 5689 5689 5690 5690 5690 5690 5691 5692 5692 5692 5692 5693 5693 5694 5695 5694 5694 5695 5696 5698 5699 5699 5698 5699 5698 5698 5698 5699 5699 5699 5700 5700 5701 5701 5701 5701 5701 5701 5700 5700 5700 5700 5700 5701 5701 5702 5702 5702 5703 5703 5703 5704
5659 5660 5660 5660 5660 5661 5663 5664 5666 5667 5667 5668 5668 5668 5669 5669 5670 5671 5672 5672 5673 5674 5675 5675 5676 5676 5676 5677 5679 5680 5681 5682 5682 5683 5684 5684 5685 5685 5685 5685 5685 5686 5687 5687 5687 5688 5688 5689 5689 5690 5690 5690 5692 5694 5694 5694 5693 5693 5693 5694 5694 5694 5693 5694 5695 5695 5696 5696 5696 5695 5696 5696 5695 5694 5694 5695 5695 5695 5696 5697 5697 5697 5697 5698 5698
5654 5654 5655 5655 5654 5655 5657 5658 5659 5660 5661 5662 5662 5662 5663 5664 5664 5665 5666 5667 5668 5669 5669 5670 5670 5670 5671 5671 5673 5674 5675 5676 5677 5677 5678 5678 5678 5679 5680 5680 5680 5680 5681 5681 5681 5682 5681 5682 5684 5684 5684 5684 5685 5687 5688 5688 5687 5687 5687 5688 5689 5689 5689 5688 5689 5689 5689 5690 5690 5690 5690 5690 5690 5690 5689 5689 5689 5689 5690 5690 5691 5691 5691 5691 5692
5648 5648 5649 5649 5649 5649 5651 5652 5652 5653 5654 5655 5656 5656 5657 5658 5658 5658 5660 5661 5662 5662 5663 5663 5664 5664 5665 5665 5666 5667 5668 5669 5670 5671 5672 5672 5672 5672 5673 5674 5675 5675 5675 5675 5675 5675 5675 5675 5677 5677 5677 5677 5679 5681 5682 5682 5681 5681 5682 5683 5684 5684 5684 5683 5682 5682 5682 5683 5684 5684 5684 5684 5685 5685 5684 5683 5683 5683 5683 5684 5684 5684 5684 5685 5685
5641 5642 5642 5643 5643 5644 5645 5646 5646 5647 5648 5649 5649 5649 5651 5652 5652 5652 5653 5654 5654 5655 5656 5657 5657 5658 5659 5659 5660 5661 5661 5662 5663 5664 5665 5665 5666 5665 5666 5667 5668 5669 5669 5669 5669 5670 5669 5669 5670 5670 5670 5671 5674 5675 5675 5675 5676 5676 5677 5678 5678 5678 5678 5677 5676 5676 5676 5677 5677 5677 5678 5678 5678 5679 5679 5678 5678 5677 5677 5677 5677 5677 5678 5678 5678
5634 5635 5635 5635 5636 5638 5640 5640 5640 5640 5641 5641 5642 5642 5644 5644 5645 5646 5647 5647 5647 5648 5649 5649 5650 5651 5652 5653 5654 5655 5656 5656 5657 5658 5658 5659 5659 5659 5659 5660 5660 5661 5662 5663 5663 5664 5664 5664 5664 5664 5665 5667 5669 5669 5669 5670 5670 5670 5671 5672 5671 5672 5672 5671 5670 5670 5670 5671 5671 5671 5671 5671 5671 5671 5672 5672 5672 5671 5670 5670 5670 5671 5671 5671 5672
5627 5627 5627 5628 5630 5632 5632 5632 5633 5634 5634 5634 5635 5636 5637 5637 5638 5639 5640 5640 5641 5641 5641 5642 5643 5643 5645 5646 5647 5648 5649 5650 5651 5651 5652 5652 5652 5653 5653 5653 5653 5654 5655 5656 5657 5657 5657 5658 5658 5658 5661 5663 5662 5662 5664 5664 5664 5664 5665 5665 5665 5666 5666 5664 5664 5664 5664 5665 5665 5665 5665 5664 5664 5664 5665 5666 5666 5665 5664 5663 5663 5664 5664 5664 5665
5619 5621 5621 5621 5623 5623 5623 5624 5625 5626 5627 5627 5628 5630 5630 5630 5631 5632 5633 5633 5634 5634 5634 5635 5636 5636 5638 5639 5640 5641 5642 5643 5643 5644 5644 5645 5645 5646 5646 5646 5646 5647 5647 5648 5649 5650 5650 5651 5651 5652 5655 5656 5655 5656 5657 5658 5658 5659 5659 5659 5659 5659 5659 5658 5657 5657 5657 5658 5658 5658 5658 5657 5657 5657 5657 5659 5659 5657 5657 5657 5657 5657 5657 5658 5658
5613 5614 5614 5614 5615 5616 5616 5617 5617 5618 5619 5620 5621 5622 5623 5623 5624 5625 5626 5626 5627 5627 5628 5628 5629 5630 5631 5632 5632 5633 5634 5635 5636 5637 5637 5637 5638 5639 5639 5639 5640 5640 5640 5639 5640 5642 5643 5644 5644 5646 5648 5649 5647 5648 5650 5651 5652 5652 5652 5652 5652 5652 5652 5651 5651 5651 5651 5651 5651 5651 5651 5650 5650 5650 5650 5651 5651 5649 5649 5649 5650 5650 5650 5651 5651
5604 5605 5606 5606 5608 5608 5608 5609 5610 5610 5610 5611 5613 5614 5615 5616 5617 5618 5618 5619 5620 5620 5621 5621 5622 5623 5625 5625 5626 5626 5627 5628 5629 5629 5630 5630 5631 5631 5632 5632 5632 5632 5632 5631 5632 5633 5635 5637 5637 5638 5640 5641 5640 5641 5643 5643 5644 5645 5645 5645 5645 5644 5645 5645 5644 5644 5644 5644 5644 5644 5644 5644 5643 5643 5643 5643 5643 5642 5641 5642 5642 5642 5643 5643 5643
5597 5598 5598 5598 5600 5601 5601 5601 5602 5602 5603 5604 5605 5606 5607 5608 5609 5610 5611 5611 5612 5613 5613 5614 5615 5616 5618 5619 5619 5619 5620 5621 5621 5622 5622 5623 5623 5624 5624 5624 5625 5625 5624 5624 5624 5626 5629 5631 5631 5631 5632 5633 5634 5635 5636 5636 5637 5637 5637 5637 5637 5637 5638 5638 5637 5637 5637 5636 5636 5636 5637 5637 5637 5636 5635 5635 5635 5634 5634 5634 5634 5634 5634 5635 5634
5591 5591 5591 5591 5594 5595 5595 5594 5595 5595 5595 5596 5597 5597 5598 5600 5600 5601 5602 5603 5604 5605 5606 5606 5607 5609 5610 5611 5611 5612 5613 5614 5615 5615 5616 5616 5616 5616 5617 5617 5617 5618 5618 5617 5618 5621 5623 5624 5624 5624 5625 5627 5628 5629 5629 5629 5630 5630 5630 5630 5629 5630 5630 5631 5630 5630 5629 5629 5628 5627 5628 5630 5629 5628 5627 5626 5626 5626 5626 5625 5625 5625 5625 5625 5625
5584 5584 5584 5585 5587 5587 5587 5588 5588 5588 5588 5588 5589 5589 5590 5591 5592 5593 5594 5595 5596 5597 5598 5599 5600 5601 5602 5603 5603 5604 5606 5607 5608 5608 5609 5609 5609 5609 5610 5610 5610 5611 5612 5611 5613 5615 5616 5616 5617 5618 5619 5621 5622 5622 5623 5623 5623 5623 5624 5623 5623 5623 5624 5623 5623 5623 5622 5622 5621 5619 5620 5622 5621 5619 5619 5619 5618 5618 5618 5617 5617 5616 5615 5615 5615
5577 5577 5577 5578 5579 5580 5580 5581 5581 5581 5581 5581 5581 5582 5582 5583 5584 5585 5586 5587 5589 5590 5591 5591 5592 5593 5594 5595 5596 5597 5598 5599 5600 5601 5602 5602 5603 5603 5603 5604 5604 5605 5606 5605 5606 5608 5609 5609 5610 5612 5614 5615 5615 5615 5616 5616 5616 5616 5617 5617 5617 5617 5617 5616 5616 5616 5615 5614 5613 5611 5611 5613 5612 5611 5611 5611 5610 5610 5609 5609 5608 5607 5607 5606 5606
5569 5570 5570 5571 5572 5573 5573 5573 5573 5574 5573 5573 5574 5574 5575 5576 5577 5577 5578 5580 5581 5582 5583 5584 5585 5586 5586 5587 5589 5590 5590 5592 5593 5593 5594 5595 5595 5596 5597 5598 5599 5600 5599 5598 5599 5601 5602 5603 5604 5606 5607 5608 5608 5609 5609 5609 5610 5610 5610 5610 5610 5610 5610 5610 5609 5609 5608 5607 5606 5605 5604 5605 5604 5603 5603 5602 5601 5601 5601 5600 5600 5599 5598 5597 5596
5562 5562 5562 5563 5564 5565 5565 5565 5566 5566 5566 5566 5566 5567 5568 5568 5569 5570 5571 5572 5573 5574 5575 5577 5578 5578 5579 5580 5582 5583 5583 5584 5585 5586 5586 5587 5587 5588 5590 5592 5592 5592 5591 5591 5593 5595 5595 5597 5598 5599 5600 5601 5601 5602 5603 5603 5603 5604 5604 5604 5604 5604 5604 5603 5603 5602 5602 5601 5600 5599 5598 5597 5596 5595 5595 5594 5593 5593 5592 5591 5590 5589 5588 5587 5587
5554 5554 5554 5554 5556 5557 5557 5558 5558 5558 5558 5559 5559 5559 5560 5561 5562 5563 5563 5564 5565 5566 5568 5569 5570 5571 5572 5573 5574 5575 5576 5577 5578 5579 5579 5579 5580 5582 5584 5585 5585 5585 5584 5585 5587 5588 5589 5591 5591 5592 5593 5594 5594 5595 5596 5596 5597 5597 5597 5598 5598 5598 5598 5597 5597 5596 5596 5594 5594 5592 5591 5590 5589 5588 5587 5586 5585 5584 5583 5582 5580 5579 5578 5577 5576
5546 5546 5546 5546 5548 5549 5549 5550 5550 5550 5551 5551 5551 5552 5553 5554 5554 5555 5556 5557 5558 5559 5561 5562 5564 5564 5565 5566 5567 5568 5569 5569 5570 5570 5571 5572 5573 5574 5576 5577 5577 5578 5578 5579 5580 5582 5583 5584 5585 5585 5586 5588 5588 5589 5590 5590 5591 5591 5591 5592 5592 5592 5592 5592 5591 5590 5589 5588 5587 5586 5585 5584 5583 5582 5580 5579 5577 5575 5574 5572 5571 5569 5568 5567 5566
5538 5538 5538 5539 5540 5541 5541 5542 5542 5543 5543 5543 5543 5544 5545 5546 5547 5548 5549 5550 5551 5552 5554 5555 5557 5558 5559 5559 5560 5561 5561 5562 5562 5562 5564 5565 5566 5567 5568 5569 5570 5571 5572 5573 5574 5576 5577 5577 5578 5579 5580 5581 5582 5583 5584 5585 5586 5586 5586 5586 5586 5587 5586 5586 5585 5584 5583 5582 5582 5581 5579 5578 5576 5575 5573 5571 5569 5567 5565 5563 5562 5560 5559 5558 5557
5529 5529 5530 5530 5531 5532 5532 5533 5533 5534 5534 5534 5534 5536 5537 5538 5539 5541 5542 5542 5544 5545 5546 5548 5549 5551 5551 5551 5552 5552 5553 5554 5554 5555 5557 5558 5559 5560 5561 5562 5563 5564 5565 5566 5567 5568 5569 5570 5571 5573 5574 5575 5577 5578 5579 5580 5580 5581 5581 5581 5581 5581 5580 5580 5579 5578 5578 5577 5576 5574 5572 5571 5569 5567 5565 5563 5561 5559 5557 5555 5553 5551 5550 5549 5547
5519 5519 5520 5521 5522 5523 5523 5524 5525 5525 5525 5525 5526 5528 5529 5530 5531 5533 5534 5535 5536 5537 5539 5540 5542 5542 5543 5544 5544 5544 5545 5546 5546 5548 5550 5551 5552 5553 5554 5555 5556 5557 5558 5559 5561 5562 5562 5563 5565 5566 5568 5569 5570 5572 5573 5574 5575 5576 5576 5576 5575 5575 5575 5574 5574 5573 5573 5571 5570 5568 5566 5564 5562 5560 5557 5555 5553 5551 5549 5547 5545 5543 5541 5540 5539
5508 5509 5510 5512 5513 5514 5514 5515 5516 5517 5516 5517 5519 5520 5521 5522 5523 5525 5526 5527 5528 5530 5531 5532 5533 5534 5535 5535 5536 5536 5537 5538 5539 5540 5542 5543 5545 5546 5547 5548 5549 5550 5551 5552 5554 5555 5556 5557 5559 5560 5562 5564 5565 5566 5568 5569 5570 5571 5570 5570 5570 5570 5570 5569 5569 5568 5567 5565 5564 5561 5559 5557 5554 5552 5549 5547 5545 5543 5540 5538 5536 5535 5533 5532 5530
5499 5500 5501 5502 5503 5504 5505 5506 5507 5507 5507 5508 5510 5511 5512 5513 5514 5516 5517 5518 5520 5522 5523 5524 5525 5526 5526 5527 5528 5529 5529 5530 5531 5532 5534 5536 5537 5539 5540 5541 5542 5543 5544 5546 5548 5549 5550 5552 5553 5555 5558 5559 5561 5562 5564 5564 5565 5565 5565 5566 5566 5566 5566 5565 5564 5562 5561 5559 5557 5555 5552 5550 5547 5544 5542 5539 5537 5534 5532 5530 5528 5526 5524 5522 5521